W0RMT-13 Weather Reports


Display with metric or nautical units.
time (UTC)temp
F
wind
direction
speed
MPH
gust
MPH
rain 1hr
in
rain 24hr
in
rain mn
in
humidity
%
barometer
mb
20240301120034 47 216 0.0 5.0 0.00 0.00 0.00 32 1008.2
20240301120021 47 213 0.0 5.0 0.00 0.00 0.00 30 1008.2
20240301115802 47 204 0.0 5.0 0.00 0.00 0.00 31 1008.2
20240301115030 47 289 1.0 5.0 0.00 0.00 0.00 30 1008.7
20240301115008 47 198 0.0 5.0 0.00 0.00 0.00 30 1008.7
20240301114759 47 173 0.0 2.0 0.00 0.00 0.00 31 1008.7
20240301114027 48 197 0.0 0.0 0.00 0.00 0.00 31 1008.2
20240301114005 48 193 0.0 0.0 0.00 0.00 0.00 31 1008.2
20240301113525 48 184 0.0 5.0 0.00 0.00 0.00 30 1008.2
20240301113024 48 195 0.0 5.0 0.00 0.00 0.00 30 1008.2
20240301113003 48 201 0.0 5.0 0.00 0.00 0.00 30 1008.2
20240301112524 48 170 1.0 5.0 0.00 0.00 0.00 29 1008.2
20240301112253 48 153 2.0 5.0 0.00 0.00 0.00 29 1008.2
20240301112000 48 199 0.0 5.0 0.00 0.00 0.00 30 1008.2
20240301111520 49 300 1.0 8.0 0.00 0.00 0.00 29 1008.2
20240301111018 49 232 2.0 8.0 0.00 0.00 0.00 28 1007.8
20240301110957 49 123 2.0 8.0 0.00 0.00 0.00 28 1007.8
20240301110517 48 211 0.0 8.0 0.00 0.00 0.00 29 1008.2
20240301110016 47 192 0.0 5.0 0.00 0.00 0.00 28 1008.2
20240301105954 47 212 0.0 5.0 0.00 0.00 0.00 28 1008.2
20240301105515 46 195 0.0 5.0 0.00 0.00 0.00 28 1008.2
20240301105013 45 211 0.0 15.0 0.00 0.00 0.00 28 1008.2
20240301104950 44 186 0.0 15.0 0.00 0.00 0.00 28 1008.2
20240301104505 43 184 0.0 15.0 0.00 0.00 0.00 28 1008.2
20240301104002 42 191 6.0 8.0 0.00 0.00 0.00 28 1008.2
20240301103940 42 243 3.0 8.0 0.00 0.00 0.00 28 1008.2
20240301103732 41 207 0.0 2.0 0.00 0.00 0.00 36 1008.2
20240301103612 41 178 0.0 2.0 0.00 0.00 0.00 41 1008.2
20240301102938 41 246 0.0 2.0 0.00 0.00 0.00 40 1008.2
20240301102458 41 185 0.0 2.0 0.00 0.00 0.00 39 1008.2
20240301101957 41 234 0.0 0.0 0.00 0.00 0.00 42 1008.2
20240301101936 41 205 0.0 0.0 0.00 0.00 0.00 41 1008.2
20240301101457 41 192 0.0 2.0 0.00 0.00 0.00 38 1008.2
20240301101227 41 192 0.0 2.0 0.00 0.00 0.00 39 1008.2
20240301100934 41 198 0.0 2.0 0.00 0.00 0.00 37 1008.2
20240301100454 42 190 0.0 0.0 0.00 0.00 0.00 39 1008.2
20240301095932 42 200 0.0 0.0 0.00 0.00 0.00 38 1008.2
20240301095453 42 187 0.0 0.0 0.00 0.00 0.00 37 1008.2
20240301094929 43 189 0.0 0.0 0.00 0.00 0.00 36 1008.7
20240301094450 44 189 0.0 0.0 0.00 0.00 0.00 35 1008.7
20240301093944 44 189 0.0 0.0 0.00 0.00 0.00 35 1008.7
20240301093922 44 189 0.0 0.0 0.00 0.00 0.00 34 1008.7
20240301093444 45 188 0.0 0.0 0.00 0.00 0.00 34 1008.7
20240301092942 46 195 0.0 0.0 0.00 0.00 0.00 34 1008.7
20240301092921 46 211 0.0 0.0 0.00 0.00 0.00 34 1008.7
20240301092440 46 185 0.0 0.0 0.00 0.00 0.00 34 1008.7
20240301091938 47 187 0.0 0.0 0.00 0.00 0.00 31 1008.7
20240301091918 47 191 0.0 0.0 0.00 0.00 0.00 31 1008.7
20240301091437 47 198 0.0 5.0 0.00 0.00 0.00 30 1008.7
20240301091208 48 194 0.0 5.0 0.00 0.00 0.00 30 1008.7
20240301090915 48 192 0.0 5.0 0.00 0.00 0.00 30 1008.7
20240301090434 48 197 0.0 2.0 0.00 0.00 0.00 28 1008.7
20240301085933 48 197 0.0 2.0 0.00 0.00 0.00 28 1008.7
20240301085911 48 219 2.0 2.0 0.00 0.00 0.00 28 1008.7
20240301085431 48 193 0.0 2.0 0.00 0.00 0.00 28 1008.7
20240301084929 48 141 0.0 5.0 0.00 0.00 0.00 26 1008.7
20240301084906 48 183 0.0 5.0 0.00 0.00 0.00 26 1008.7
20240301084427 47 173 1.0 5.0 0.00 0.00 0.00 27 1008.7
20240301083923 47 191 0.0 5.0 0.00 0.00 0.00 27 1008.7
20240301083902 47 185 0.0 5.0 0.00 0.00 0.00 27 1008.7
20240301083423 46 212 0.0 5.0 0.00 0.00 0.00 26 1008.7
20240301082921 46 210 1.0 5.0 0.00 0.00 0.00 29 1008.7
20240301082900 46 188 0.0 5.0 0.00 0.00 0.00 28 1008.7
20240301082420 46 269 0.0 5.0 0.00 0.00 0.00 27 1008.7
20240301081918 46 285 1.0 2.0 0.00 0.00 0.00 29 1008.7
20240301081857 46 240 0.0 2.0 0.00 0.00 0.00 29 1008.7
20240301081417 46 137 0.0 2.0 0.00 0.00 0.00 31 1008.7
20240301081147 47 213 0.0 0.0 0.00 0.00 0.00 29 1009.0
20240301080855 47 194 0.0 0.0 0.00 0.00 0.00 29 1009.0
20240301080415 48 184 0.0 0.0 0.00 0.00 0.00 30 1008.7
20240301080144 48 191 0.0 0.0 0.00 0.00 0.00 28 1008.7
20240301075852 48 197 0.0 0.0 0.00 0.00 0.00 28 1008.7
20240301075642 49 183 0.0 2.0 0.00 0.00 0.00 28 1008.7
20240301074910 49 254 0.0 2.0 0.00 0.00 0.00 27 1008.7
20240301074849 49 205 0.0 2.0 0.00 0.00 0.00 27 1008.7
20240301074404 50 199 0.0 5.0 0.00 0.00 0.00 27 1008.7
20240301073858 50 238 0.0 5.0 0.00 0.00 0.00 24 1008.7
20240301073848 50 185 0.0 5.0 0.00 0.00 0.00 24 1008.7
20240301073355 50 217 0.0 8.0 0.00 0.00 0.00 24 1008.7
20240301072853 50 178 0.0 8.0 0.00 0.00 0.00 24 1008.2
20240301072841 50 190 0.0 8.0 0.00 0.00 0.00 24 1008.2
20240301072349 50 225 1.0 8.0 0.00 0.00 0.00 24 1008.7
20240301071847 49 197 0.0 5.0 0.00 0.00 0.00 24 1008.2
20240301071837 49 208 0.0 5.0 0.00 0.00 0.00 24 1008.2
20240301071345 49 161 0.0 8.0 0.00 0.00 0.00 23 1008.2
20240301070841 49 213 2.0 10.0 0.00 0.00 0.00 23 1008.2
20240301070831 49 184 0.0 10.0 0.00 0.00 0.00 23 1008.2
20240301070337 49 224 2.0 10.0 0.00 0.00 0.00 24 1008.7
20240301065835 48 201 0.0 5.0 0.00 0.00 0.00 24 1008.2
20240301065824 48 197 0.0 5.0 0.00 0.00 0.00 24 1008.2
20240301065604 48 181 0.0 5.0 0.00 0.00 0.00 23 1008.2
20240301064820 47 202 0.0 5.0 0.00 0.00 0.00 24 1008.7
20240301064328 47 210 2.0 8.0 0.00 0.00 0.00 23 1009.0
20240301064052 47 209 2.0 10.0 0.00 0.00 0.00 24 1009.0
20240301063811 47 209 2.0 10.0 0.00 0.00 0.00 24 1009.0
20240301063319 47 114 0.0 10.0 0.00 0.00 0.00 25 1009.0
20240301062803 47 196 0.0 5.0 0.00 0.00 0.00 25 1008.7
20240301062309 47 172 0.0 2.0 0.00 0.00 0.00 25 1009.0
20240301062038 47 187 0.0 2.0 0.00 0.00 0.00 27 1009.0
20240301061756 47 187 0.0 2.0 0.00 0.00 0.00 27 1009.5
20240301061303 48 176 0.0 2.0 0.00 0.00 0.00 26 1009.0
20240301060747 47 179 0.0 8.0 0.00 0.00 0.00 24 1009.5
20240301060253 47 190 0.0 8.0 0.00 0.00 0.00 25 1009.5
20240301060019 46 178 0.0 13.0 0.00 0.00 0.00 27 1009.5
20240301055738 46 179 0.0 13.0 0.00 0.00 0.00 27 1009.5
20240301055246 46 157 0.0 13.0 0.00 0.00 0.00 25 1009.5
20240301054730 44 202 0.0 10.0 0.00 0.00 0.00 24 1009.5
20240301054235 43 258 0.0 10.0 0.00 0.00 0.00 23 1009.5
20240301054002 42 204 1.0 5.0 0.00 0.00 0.00 27 1009.8
20240301053836 42 204 1.0 5.0 0.00 0.00 0.00 27 1009.8
20240301053227 42 149 0.0 5.0 0.00 0.00 0.00 27 1009.5
20240301052725 42 178 0.0 5.0 0.00 0.00 0.00 28 1009.5
20240301052221 41 190 0.0 5.0 0.00 0.00 0.00 32 1009.5
20240301051719 41 175 0.0 0.0 0.00 0.00 0.00 29 1009.8
20240301051218 42 198 0.0 2.0 0.00 0.00 0.00 32 1009.8
20240301050719 42 225 0.0 2.0 0.00 0.00 0.00 30 1009.8
20240301050217 42 193 0.0 0.0 0.00 0.00 0.00 31 1009.8
20240301045946 42 196 0.0 0.0 0.00 0.00 0.00 31 1009.8
20240301045820 42 196 0.0 0.0 0.00 0.00 0.00 31 1009.8
20240301045212 42 185 0.0 0.0 0.00 0.00 0.00 31 1009.8
20240301044710 42 176 0.0 0.0 0.00 0.00 0.00 28 1010.2
20240301044207 42 195 0.0 2.0 0.00 0.00 0.00 30 1010.2
20240301043706 42 192 0.0 2.0 0.00 0.00 0.00 30 1010.2
20240301043203 42 196 0.0 2.0 0.00 0.00 0.00 30 1009.8
20240301042700 0 0.0 0.0 0.00 0.00 0.00
20240229211802 0 0.0 0.0 0.00 0.00 0.00
20240229210430 0 0.0 0.0 0.00 0.00 0.00
20240229204754 0 0.0 0.0 0.00 0.00 0.00
20240229202553 0 0.0 0.0 0.00 0.00 0.00 1010.2
20240229200323 0 0.0 0.0 0.00 0.00 0.00 1010.7
20240229195227 0 0.0 0.0 0.00 0.00 0.00
20240229194444 0 0.0 0.0 0.00 0.00 0.00
20240229194318 0 0.0 0.0 0.00 0.00 0.00
20240229192628 0 0.0 0.0 0.00 0.00 0.00
20240229190933 60 148 0.0 0.0 0.00 0.00 0.00 17 1011.5
20240229185856 60 79 6.0 11.0 0.00 0.00 0.00 18 1011.5
20240229185525 60 243 0.0 6.0 0.00 0.00 0.00 17 1011.5
20240229184737 59 72 6.0 11.0 0.00 0.00 0.00 17 1011.8
20240229184229 59 93 3.0 11.0 0.00 0.00 0.00 18 1011.8
20240229183728 59 73 7.0 11.0 0.00 0.00 0.00 18 1011.8
20240229183411 59 176 0.0 0.0 0.00 0.00 0.00 18 1011.8
20240229182659 58 198 0.0 0.0 0.00 0.00 0.00 20 1011.8
20240229182612 58 148 0.0 0.0 0.00 0.00 0.00 21 1011.8
20240229181544 0 0.0 0.0 0.00 0.00 0.00 1012.2
20240229175817 0 0.0 0.0 0.00 0.00 0.00 1012.2
20240229174026 54 170 0.0 0.0 0.00 0.00 0.00 23 1012.2
20240229173219 54 167 0.0 11.0 0.00 0.00 0.00 23 1012.7
20240229172632 54 76 7.0 17.0 0.00 0.00 0.00 23 1012.7
20240229172128 0 0.0 0.0 0.00 0.00 0.00 1012.7
20240229171810 53 208 0.0 0.0 0.00 0.00 0.00 22 1012.7
20240229170720 53 208 0.0 0.0 0.00 0.00 0.00 22 1012.7
20240229170529 53 175 0.0 0.0 0.00 0.00 0.00 24 1012.7
20240229165644 52 213 0.0 11.0 0.00 0.00 0.00 25 1013.0
20240229165334 52 43 5.0 11.0 0.00 0.00 0.00 25 1013.0
20240229164523 52 149 0.0 0.0 0.00 0.00 0.00 26 1013.0
20240229163848 51 161 0.0 6.0 0.00 0.00 0.00 26 1012.7
20240229163137 51 183 0.0 0.0 0.00 0.00 0.00 25 1013.0
20240229162628 50 191 0.0 0.0 0.00 0.00 0.00 26 1013.0
20240229161938 49 188 0.0 0.0 0.00 0.00 0.00 26 1013.0
20240229161437 49 174 0.0 0.0 0.00 0.00 0.00 27 1013.0
20240229160936 48 174 0.0 0.0 0.00 0.00 0.00 30 1013.0
20240229160327 47 132 0.0 0.0 0.00 0.00 0.00 30 1013.0
20240229155822 0 0.0 0.0 0.00 0.00 0.00 1013.0
20240229154327 0 0.0 0.0 0.00 0.00 0.00
20240229153325 0 0.0 0.0 0.00 0.00 0.00
20240229152746 0 0.0 0.0 0.00 0.00 0.00
20240229151942 0 0.0 0.0 0.00 0.00 0.00
20240229150149 32 165 0.0 0.0 0.00 0.00 0.00 46 1013.4
20240229145726 32 165 0.0 0.0 0.00 0.00 0.00 46 1013.4
20240229145346 31 183 0.0 0.0 0.00 0.00 0.00 49 1013.4
20240229144655 29 173 0.0 0.0 0.00 0.00 0.00 59 1013.0
20240229144647 0 0.0 0.0 0.00 0.00 0.00 1013.4
20240229143243 28 175 0.0 0.0 0.00 0.00 0.00 58 1013.4
20240229142631 28 192 0.0 0.0 0.00 0.00 0.00 61 1013.0
20240229142127 27 194 0.0 0.0 0.00 0.00 0.00 58 1013.4
20240229141548 26 193 0.0 0.0 0.00 0.00 0.00 62 1013.4
20240229141128 26 193 0.0 0.0 0.00 0.00 0.00 62 1013.4
20240229141058 26 191 0.0 0.0 0.00 0.00 0.00 61 1013.4
20240229135920 26 225 0.0 0.0 0.00 0.00 0.00 64 1013.4
20240229135030 26 201 0.0 0.0 0.00 0.00 0.00 64 1013.4
20240229134429 26 215 0.0 0.0 0.00 0.00 0.00 64 1013.4
20240229133528 26 211 0.0 0.0 0.00 0.00 0.00 65 1013.4
20240229133315 26 182 0.0 0.0 0.00 0.00 0.00 62 1013.4
20240229133027 27 186 0.0 0.0 0.00 0.00 0.00 62 1013.0
20240229132253 27 192 0.0 0.0 0.00 0.00 0.00 63 1013.4
20240229131724 27 190 0.0 0.0 0.00 0.00 0.00 63 1013.0
20240229131357 27 194 0.0 0.0 0.00 0.00 0.00 61 1013.4
20240229131231 27 194 0.0 0.0 0.00 0.00 0.00 61 1013.4
20240229130613 27 220 0.0 0.0 0.00 0.00 0.00 62 1013.0
20240229130037 27 195 0.0 0.0 0.00 0.00 0.00 64 1013.0
20240229125539 27 207 0.0 0.0 0.00 0.00 0.00 59 1013.0
20240229124720 27 204 0.0 0.0 0.00 0.00 0.00 60 1013.4
20240229124525 27 200 0.0 0.0 0.00 0.00 0.00 62 1013.4
20240229123913 27 194 0.0 0.0 0.00 0.00 0.00 62 1013.4
20240229123527 27 192 0.0 0.0 0.00 0.00 0.00 59 1013.4
20240229123333 27 198 0.0 0.0 0.00 0.00 0.00 60 1013.0
20240229122450 28 187 0.0 0.0 0.00 0.00 0.00 59 1013.0
20240229121549 28 201 0.0 0.0 0.00 0.00 0.00 56 1013.0
20240229121308 28 201 0.0 0.0 0.00 0.00 0.00 56 1013.0
20240229120925 28 188 0.0 0.0 0.00 0.00 0.00 59 1012.7